Flag for Norway Weather past 2 weeks in Kristiansund, Norway

Now
54 °F

Passing clouds.


Feels Like: 53 °F
Forecast: 56 / 61 °F
Wind: 3 mph from East

Location: Kristiansund / Kvernberget

Current Time: Aug 23, 2014 at 9:44:37 AM

Latest Report: Aug 23, 2014 at 8:50 AM


Visibility: N/A

Pressure: 29.59 "Hg

Humidity: 88%

Dew point: 50 °F

Location of KristiansundLocation

Historic Weather in Kristiansund — Graph

°F

Kristiansund temperature yesterday

Maximum temperature yesterday: 59 °F (at 12:50 PM)
Minimum temperature yesterday: 50 °F (at 2:50 AM)
Average temperature yesterday: 54 °F

Past Weeks' High & Low Weather Summary

 TemperatureHumidityPressure
High81 °F (Aug 9, 4:20 PM)100% (Aug 8, 8:20 AM)29.98 "Hg (Aug 8, 8:20 AM)
Low46 °F (Aug 23, 5:50 AM)31% (Aug 10, 2:50 PM)29.21 "Hg (Aug 19, 1:50 AM)
Average59 °F76%29.53 "Hg
* Reported Aug 8 8:20 AM — Aug 23 8:50 AM, Kristiansund, Weather by CustomWeather, © 2014

Note: Actual official high and low records may vary slightly from our data, if they occured in-between our weather recording intervals... More about our weather records

Advertising

Kristiansund weather history for previous 24 hours

 ConditionsComfort  
Time TempWeatherWind HumidityBarometerVisibility
8:50 AM
Aug 23
54 °FPassing clouds.3 mph88%29.59 "HgN/A
8:20 AM54 °FPassing clouds.2 mph82%29.59 "HgN/A
7:50 AM54 °FPassing clouds.2 mph88%29.59 "HgN/A
7:20 AM50 °FPassing clouds.3 mph94%29.59 "HgN/A
6:50 AM50 °FPassing clouds.3 mph94%29.59 "HgN/A
6:20 AM48 °FCool.3 mph94%29.59 "HgN/A
5:50 AM46 °FCool.1 mph93%29.59 "HgN/A
5:20 AM48 °FCool.No wind94%29.59 "HgN/A
4:50 AM50 °FCool.5 mph94%29.62 "HgN/A
4:20 AM48 °FCool.5 mph94%29.62 "HgN/A
3:50 AM48 °FCool.1 mph94%29.62 "HgN/A
3:20 AM50 °FPassing clouds.5 mph88%29.62 "HgN/A
2:50 AM50 °FCool.6 mph88%29.62 "HgN/A
2:20 AM52 °FCool.6 mph82%29.62 "HgN/A
1:50 AM52 °FPassing clouds.7 mph82%29.62 "HgN/A
1:20 AM52 °FPassing clouds.8 mph82%29.62 "HgN/A
12:50 AM52 °FPassing clouds.7 mph82%29.62 "HgN/A
12:20 AM54 °FPassing clouds.8 mph77%29.65 "HgN/A
11:50 PM
Aug 22
54 °FMostly cloudy.10 mph77%29.65 "HgN/A
11:20 PM54 °FPassing clouds.12 mph77%29.65 "HgN/A
10:50 PM54 °FPassing clouds.10 mph72%29.65 "HgN/A
10:20 PM55 °FPassing clouds.13 mph72%29.65 "HgN/A
9:50 PM55 °FScattered clouds.14 mph72%29.65 "HgN/A
9:20 PM55 °FScattered clouds.13 mph67%29.65 "HgN/A
8:50 PM55 °FScattered clouds.14 mph72%29.65 "HgN/A
8:20 PM57 °FScattered clouds.10 mph67%29.65 "HgN/A
7:50 PM57 °FPartly sunny.13 mph67%29.65 "HgN/A
7:20 PM57 °FScattered clouds.13 mph67%29.65 "HgN/A
6:50 PM57 °FScattered clouds.14 mph67%29.65 "HgN/A
6:20 PM59 °FScattered clouds.15 mph63%29.65 "HgN/A
5:50 PM59 °FScattered clouds.15 mph63%29.65 "HgN/A
5:20 PM59 °FScattered clouds.16 mph63%29.65 "HgN/A
4:50 PM59 °FScattered clouds.15 mph63%29.65 "HgN/A
4:20 PM59 °FScattered clouds.14 mph68%29.65 "HgN/A
3:50 PM59 °FScattered clouds.15 mph63%29.65 "HgN/A
3:20 PM59 °FScattered clouds.15 mph68%29.68 "HgN/A
2:50 PM59 °FScattered clouds.14 mph68%29.68 "HgN/A
2:20 PM59 °FScattered clouds.13 mph63%29.68 "HgN/A
1:50 PM57 °FScattered clouds.14 mph72%29.68 "HgN/A
1:20 PM59 °FScattered clouds.9 mph63%29.68 "HgN/A
12:50 PM59 °FScattered clouds.13 mph63%29.68 "HgN/A
12:20 PM57 °FScattered clouds.10 mph67%29.68 "HgN/A
11:50 AM57 °FScattered clouds.6 mph67%29.68 "HgN/A
11:20 AM55 °FScattered clouds.3 mph77%29.68 "HgN/A
10:50 AM54 °FScattered clouds.3 mph88%29.68 "HgN/A
10:20 AM54 °FScattered clouds.6 mph82%29.71 "HgN/A
9:50 AM54 °FScattered showers. Scattered clouds.5 mph82%29.71 "HgN/A
9:20 AM52 °FScattered showers. Broken clouds.7 mph88%29.71 "HgN/A
Weather by CustomWeather, © 2014

See weather overviewHow to use our weather pages